Stündliche Wetter Berlin

Heute, 18 Mai, Dienstag

Zeit Temperatur Niederschläge Wind Luftdruck Luftfeuchtigkeit
00:00 +9°C° 0.1 mm 2 m/S 751 mmHg 94%
01:00 +8°C° 0.1 mm 2 m/S 751 mmHg 95%
02:00 +8°C° 0 mm 2 m/S 751 mmHg 96%
03:00 +8°C° 0 mm 2 m/S 751 mmHg 96%
04:00 +7°C° 0 mm 2 m/S 752 mmHg 97%
05:00 +8°C° 0 mm 3 m/S 752 mmHg 95%
06:00 +8°C° 0 mm 4 m/S 753 mmHg 93%
07:00 +10°C° 0 mm 4 m/S 753 mmHg 92%
08:00 +10°C° 0 mm 4 m/S 754 mmHg 90%
09:00 +10°C° 0 mm 4 m/S 754 mmHg 87%
10:00 +11°C° 0 mm 4 m/S 754 mmHg 85%
11:00 +12°C° 0 mm 4 m/S 754 mmHg 74%
12:00 +14°C° 0 mm 4 m/S 754 mmHg 63%
13:00 +17°C° 0 mm 4 m/S 754 mmHg 52%
14:00 +17°C° 0 mm 3 m/S 754 mmHg 54%
15:00 +16°C° 0 mm 3 m/S 754 mmHg 56%
16:00 +16°C° 0 mm 3 m/S 754 mmHg 58%
17:00 +14°C° 0.1 mm 3 m/S 754 mmHg 62%
18:00 +14°C° 0.1 mm 2 m/S 754 mmHg 67%
19:00 +14°C° 0.1 mm 2 m/S 754 mmHg 71%
20:00 +13°C° 0.1 mm 2 m/S 755 mmHg 77%
21:00 +10°C° 0.1 mm 2 m/S 755 mmHg 83%
22:00 +9°C° 0.1 mm 2 m/S 755 mmHg 89%
23:00 +9°C° 0.1 mm 2 m/S 755 mmHg 91%

Morgen, 19 Mai, Mittwoch

Zeit Temperatur Niederschläge Wind Luftdruck Luftfeuchtigkeit
00:00 +9°C° 0.1 mm 2 m/S 756 mmHg 93%
01:00 +8°C° 0.1 mm 2 m/S 756 mmHg 95%
02:00 +8°C° 0.3 mm 2 m/S 756 mmHg 95%
03:00 +10°C° 0.3 mm 1 m/S 756 mmHg 95%
04:00 +10°C° 0.3 mm 1 m/S 756 mmHg 95%
05:00 +9°C° 0.4 mm 2 m/S 756 mmHg 94%
06:00 +9°C° 0.4 mm 2 m/S 756 mmHg 93%
07:00 +9°C° 0.4 mm 2 m/S 757 mmHg 92%
08:00 +11°C° 0.2 mm 3 m/S 757 mmHg 83%
09:00 +12°C° 0.2 mm 3 m/S 757 mmHg 74%
10:00 +13°C° 0.2 mm 3 m/S 757 mmHg 65%
11:00 +14°C° 0.1 mm 4 m/S 757 mmHg 59%
12:00 +15°C° 0.1 mm 4 m/S 757 mmHg 54%
13:00 +17°C° 0.1 mm 4 m/S 757 mmHg 48%
14:00 +17°C° 0.1 mm 3 m/S 757 mmHg 51%
15:00 +16°C° 0.1 mm 3 m/S 757 mmHg 54%
16:00 +16°C° 0.1 mm 3 m/S 757 mmHg 57%
17:00 +15°C° 0.1 mm 2 m/S 757 mmHg 62%
18:00 +14°C° 0.1 mm 2 m/S 757 mmHg 66%
19:00 +14°C° 0.1 mm 1 m/S 757 mmHg 71%
20:00 +12°C° 0 mm 1 m/S 758 mmHg 76%
21:00 +11°C° 0 mm 1 m/S 758 mmHg 80%
22:00 +10°C° 0 mm 1 m/S 758 mmHg 85%
23:00 +9°C° 0 mm 1 m/S 758 mmHg 86%

übermorgen, 20 Mai, Donnerstag

Zeit Temperatur Niederschläge Wind Luftdruck Luftfeuchtigkeit
00:00 +9°C° 0 mm 1 m/S 758 mmHg 88%
01:00 +7°C° 0 mm 2 m/S 758 mmHg 90%
02:00 +7°C° 0 mm 2 m/S 759 mmHg 91%
03:00 +7°C° 0 mm 2 m/S 759 mmHg 92%
04:00 +6°C° 0 mm 2 m/S 759 mmHg 94%
05:00 +8°C° 0 mm 2 m/S 760 mmHg 90%
06:00 +9°C° 0 mm 2 m/S 760 mmHg 87%
07:00 +10°C° 0 mm 2 m/S 760 mmHg 83%
08:00 +11°C° 0 mm 3 m/S 760 mmHg 74%
09:00 +13°C° 0 mm 3 m/S 761 mmHg 65%
10:00 +14°C° 0 mm 4 m/S 761 mmHg 56%
11:00 +15°C° 0 mm 4 m/S 761 mmHg 53%
12:00 +15°C° 0 mm 5 m/S 761 mmHg 50%
13:00 +16°C° 0 mm 5 m/S 761 mmHg 48%
14:00 +16°C° 0 mm 5 m/S 761 mmHg 48%
15:00 +17°C° 0 mm 4 m/S 761 mmHg 48%
16:00 +15°C° 0 mm 4 m/S 761 mmHg 49%
17:00 +16°C° 0 mm 3 m/S 761 mmHg 55%
18:00 +15°C° 0 mm 2 m/S 761 mmHg 61%
19:00 +14°C° 0 mm 2 m/S 761 mmHg 67%
20:00 +13°C° 0 mm 2 m/S 762 mmHg 72%
21:00 +10°C° 0 mm 2 m/S 762 mmHg 78%
22:00 +9°C° 0 mm 2 m/S 762 mmHg 83%
23:00 +8°C° 0 mm 2 m/S 761 mmHg 85%

21 Mai, Freitag

Zeit Temperatur Niederschläge Wind Luftdruck Luftfeuchtigkeit
00:00 +8°C° 0 mm 2 m/S 761 mmHg 88%
01:00 +8°C° 0 mm 2 m/S 761 mmHg 91%
02:00 +7°C° 0 mm 2 m/S 761 mmHg 90%
03:00 +7°C° 0 mm 2 m/S 760 mmHg 90%
04:00 +7°C° 0 mm 2 m/S 760 mmHg 90%
05:00 +9°C° 0 mm 3 m/S 759 mmHg 83%
06:00 +10°C° 0 mm 3 m/S 759 mmHg 76%
07:00 +11°C° 0 mm 4 m/S 759 mmHg 69%
08:00 +13°C° 0 mm 5 m/S 758 mmHg 64%
09:00 +15°C° 0 mm 5 m/S 758 mmHg 58%
10:00 +17°C° 0 mm 6 m/S 757 mmHg 52%
11:00 +17°C° 0.1 mm 6 m/S 757 mmHg 51%
12:00 +19°C° 0.1 mm 6 m/S 756 mmHg 50%
13:00 +18°C° 0.1 mm 7 m/S 756 mmHg 49%
14:00 +17°C° 0.1 mm 6 m/S 755 mmHg 54%
15:00 +16°C° 0.1 mm 6 m/S 755 mmHg 59%
16:00 +14°C° 0.1 mm 6 m/S 755 mmHg 64%
17:00 +14°C° 0.1 mm 4 m/S 754 mmHg 70%
18:00 +13°C° 0.1 mm 3 m/S 754 mmHg 75%
19:00 +13°C° 0.1 mm 1 m/S 753 mmHg 80%
20:00 +13°C° 0.1 mm 1 m/S 753 mmHg 80%
21:00 +13°C° 0.1 mm 2 m/S 752 mmHg 79%
22:00 +13°C° 0.1 mm 2 m/S 752 mmHg 79%
23:00 +12°C° 0.1 mm 3 m/S 751 mmHg 82%

22 Mai, Samstag

Zeit Temperatur Niederschläge Wind Luftdruck Luftfeuchtigkeit
00:00 +12°C° 0.1 mm 3 m/S 751 mmHg 85%
01:00 +12°C° 0.1 mm 4 m/S 750 mmHg 89%
02:00 +12°C° 0.1 mm 4 m/S 750 mmHg 89%
03:00 +11°C° 0.1 mm 4 m/S 750 mmHg 90%
04:00 +11°C° 0.1 mm 4 m/S 749 mmHg 90%
05:00 +10°C° 0.2 mm 5 m/S 750 mmHg 89%
06:00 +10°C° 0.2 mm 5 m/S 750 mmHg 88%
07:00 +12°C° 0.2 mm 5 m/S 750 mmHg 87%
08:00 +11°C° 0.2 mm 6 m/S 751 mmHg 82%
09:00 +13°C° 0.2 mm 6 m/S 751 mmHg 76%
10:00 +14°C° 0.2 mm 7 m/S 751 mmHg 71%
11:00 +15°C° 0.1 mm 7 m/S 751 mmHg 63%
12:00 +15°C° 0.1 mm 7 m/S 751 mmHg 55%
13:00 +16°C° 0.1 mm 7 m/S 751 mmHg 47%
14:00 +16°C° 0.2 mm 7 m/S 752 mmHg 53%
15:00 +15°C° 0.2 mm 6 m/S 752 mmHg 59%
16:00 +14°C° 0.2 mm 6 m/S 752 mmHg 66%
17:00 +14°C° 0.3 mm 5 m/S 752 mmHg 69%
18:00 +13°C° 0.3 mm 5 m/S 752 mmHg 73%
19:00 +12°C° 0.3 mm 5 m/S 752 mmHg 76%
20:00 +12°C° 0 mm 5 m/S 753 mmHg 80%
21:00 +11°C° 0 mm 4 m/S 753 mmHg 83%
22:00 +10°C° 0 mm 4 m/S 753 mmHg 87%
23:00 +10°C° 0 mm 4 m/S 753 mmHg 87%

23 Mai, Sonntag

Zeit Temperatur Niederschläge Wind Luftdruck Luftfeuchtigkeit
00:00 +8°C° 0 mm 4 m/S 753 mmHg 88%
01:00 +8°C° 0 mm 4 m/S 753 mmHg 88%
02:00 +8°C° 0 mm 4 m/S 753 mmHg 89%
03:00 +7°C° 0 mm 4 m/S 753 mmHg 89%
04:00 +7°C° 0 mm 4 m/S 753 mmHg 90%
05:00 +8°C° 0 mm 4 m/S 753 mmHg 85%
06:00 +9°C° 0 mm 5 m/S 754 mmHg 81%
07:00 +10°C° 0 mm 5 m/S 754 mmHg 77%
08:00 +10°C° 0.4 mm 5 m/S 754 mmHg 77%
09:00 +10°C° 0.4 mm 5 m/S 754 mmHg 77%
10:00 +10°C° 0.4 mm 5 m/S 754 mmHg 77%
11:00 +12°C° 0.2 mm 5 m/S 754 mmHg 71%
12:00 +13°C° 0.2 mm 5 m/S 754 mmHg 64%
13:00 +14°C° 0.2 mm 5 m/S 754 mmHg 58%
14:00 +15°C° 0.1 mm 6 m/S 754 mmHg 54%
15:00 +15°C° 0.1 mm 6 m/S 754 mmHg 51%
16:00 +16°C° 0.1 mm 6 m/S 754 mmHg 47%
17:00 +15°C° 0 mm 5 m/S 755 mmHg 53%
18:00 +14°C° 0 mm 4 m/S 755 mmHg 58%
19:00 +13°C° 0 mm 3 m/S 755 mmHg 64%
20:00 +12°C° 0 mm 3 m/S 755 mmHg 70%
21:00 +10°C° 0 mm 3 m/S 755 mmHg 76%
22:00 +9°C° 0 mm 2 m/S 756 mmHg 82%
23:00 +9°C° 0 mm 2 m/S 756 mmHg 83%
Mehr zeigen

Wir brauchen deine Erlaubnis

Meteoprog und unser Service Anbieter werden persönliche Daten aufbewahren, so wie Cookies, Geräte Bezeichnung oder ähnliche Technologien von deinem Gerät und Prozess, so wie Persönliche Daten Inhalte und Werbungen, genauso wie social Media und den Verkehr zu analysieren.

  • Aufbewahrung und/oder Zugang zu deiner Geräte Informationen.

    Cookies, Geräte Bezeichnung oder andere Informationen, können aufbewahrt oder Zugang zu deinem Gerät erhalten, für den Grund, der oben angegeben wird.

  • Personalisierte Werbung und Inhalte, Messungen, Einblick in das Publikum und Produkt Entwicklung.

    Werbungen und Inhalte können personalisiert werden, basierend auf ein Profil. Mehr Daten können besser personalisierte Werbungen und Inhalte hinzufügen. Werbung und Inhalte können gezeigt und gemessen werden. Einblicke über das Publikum, welche die Werbung gesehen haben und den Inhalt, können abgeleitet werden. So wie Daten können genutzt werden, um es zu verbessern oder die Benutzer Erfahrung zu verbessern das System und die Software.

Wenn du “Ich stimme zu” klickst, erlaubst du uns, die Cookies zu benutzen die Geräte Bezeichnung, den Web oder ähnliche Technologien zu benutzen. Deine Settings, können in deinem Gerät bei deinem Browser geändert werden.

Für den bestimmten Zweck, berechtigten Interessen beruhen darauf, mehr als auf den Inhalt. Du kannst mehr darüber in unseren Privaten und Cookie Politik lesen.